sat.trackr.live / text

‹ back to catalog

UNKNOWN

NORAD 87878

UNKNOWN UNKNOWN UNKNOWN

§ Identity

Operator
Country
Launch date
Launch site
Launch vehicle
Mass (kg)
RCS (m²)

External: N2YO · Heavens-Above

§ Orbital elements

Epoch: 2026-05-20T14:24:55.241568Z

Period
99.87 min
Inclination
99.1714°
Eccentricity
0.0036099
Mean motion
14.41912577 rev/d
Perigee alt
726.4 km
Apogee alt
777.9 km
Semi-major
7,130.3 km
B*
5.2151e-4
RAAN
276.4945°
Arg perigee
157.5429°
Mean anomaly
202.7348°
Rev number
63,418

§ Raw data

UNKNOWN1 87878U          26140.60063937  .00001671  00000+0  52151-3 0  99962 87878  99.1714 276.4945 0036099 157.5429 202.7348 14.41912577634187

JSON: /api/v1/satellites/87878 · /tle

For live sub-satellite position, see the globe view (requires WebGL).

§ Visibility from observer

Set your observer location to see the next 7 days of passes ≥ 10°. The values pass through the URL so the page stays shareable.

No JS? Fill the form by hand. The geolocation button needs JavaScript.